| time (UTC) | temp C | wind direction | speed KPH | gust KPH | rain 1hr cm | rain 24hr cm | rain mn cm | humidity % | barometer mb |
| 20260831232646 | 30 | 64 | 8.0 | 17.7 | 0.00 | 0.00 | 1.91 | 72 | 1014.6 |
| 20260831232147 | 30 | 92 | 8.0 | 11.3 | 0.00 | 0.00 | 1.91 | 71 | 1014.9 |
| 20260831231646 | 30 | 73 | 8.0 | 19.3 | 0.00 | 0.00 | 1.91 | 70 | 1014.9 |
| 20260831231146 | 30 | 79 | 4.8 | 8.0 | 0.00 | 0.00 | 1.91 | 69 | 1014.9 |
| 20260831230646 | 30 | 100 | 9.7 | 14.5 | 0.00 | 0.00 | 1.91 | 68 | 1014.9 |
| 20260831230146 | 30 | 34 | 3.2 | 11.3 | 0.00 | 0.00 | 1.91 | 68 | 1014.9 |
| 20260831225646 | 31 | 67 | 9.7 | 14.5 | 0.00 | 0.00 | 1.91 | 67 | 1014.9 |
| 20260831225146 | 31 | 74 | 6.4 | 11.3 | 0.00 | 0.00 | 1.91 | 68 | 1014.6 |
| 20260831224646 | 30 | 97 | 4.8 | 11.3 | 0.00 | 0.00 | 1.91 | 71 | 1014.9 |
| 20260831224146 | 30 | 103 | 4.8 | 9.7 | 0.00 | 0.00 | 1.91 | 72 | 1014.9 |
| 20260831223647 | 30 | 69 | 8.0 | 19.3 | 0.00 | 0.00 | 1.91 | 71 | 1014.9 |
| 20260831223146 | 30 | 62 | 8.0 | 14.5 | 0.00 | 0.00 | 1.91 | 71 | 1014.9 |
| 20260831222646 | 31 | 84 | 11.3 | 20.9 | 0.00 | 0.00 | 1.91 | 69 | 1015.2 |
| 20260831222146 | 31 | 84 | 4.8 | 11.3 | 0.00 | 0.00 | 1.91 | 69 | 1014.9 |
| 20260831221646 | 31 | 74 | 8.0 | 12.9 | 0.00 | 0.00 | 1.91 | 69 | 1014.9 |
| 20260831221147 | 31 | 70 | 9.7 | 19.3 | 0.00 | 0.00 | 1.91 | 69 | 1014.9 |
| 20260831220647 | 31 | 59 | 6.4 | 12.9 | 0.00 | 0.00 | 1.91 | 69 | 1014.9 |
| 20260831220147 | 31 | 76 | 4.8 | 11.3 | 0.00 | 0.00 | 1.91 | 69 | 1014.9 |
| 20260831215646 | 31 | 35 | 4.8 | 17.7 | 0.00 | 0.00 | 1.91 | 67 | 1014.6 |
| 20260831215146 | 31 | 186 | 1.6 | 17.7 | 0.00 | 0.00 | 1.91 | 66 | 1014.9 |
| 20260831214646 | 31 | 159 | 8.0 | 16.1 | 0.00 | 0.00 | 1.91 | 67 | 1014.9 |
| 20260831214146 | 31 | 71 | 8.0 | 17.7 | 0.00 | 0.00 | 1.91 | 66 | 1014.9 |
| 20260831213647 | 31 | 130 | 3.2 | 12.9 | 0.00 | 0.00 | 1.91 | 68 | 1014.6 |
| 20260831213147 | 31 | 64 | 6.4 | 11.3 | 0.00 | 0.00 | 1.91 | 67 | 1014.9 |
| 20260831212646 | 31 | 95 | 8.0 | 11.3 | 0.00 | 0.00 | 1.91 | 66 | 1014.9 |
| 20260831212153 | 31 | 43 | 9.7 | 14.5 | 0.00 | 0.00 | 1.91 | 67 | 1014.9 |
| 20260831211649 | 31 | 125 | 4.8 | 17.7 | 0.00 | 0.00 | 1.91 | 70 | 1014.9 |
| 20260831211146 | 31 | 101 | 6.4 | 17.7 | 0.00 | 0.00 | 1.91 | 71 | 1014.9 |
| 20260831210647 | 31 | 111 | 9.7 | 11.3 | 0.00 | 0.00 | 1.91 | 71 | 1014.9 |
| 20260831210149 | 31 | 73 | 9.7 | 14.5 | 0.00 | 0.00 | 1.91 | 70 | 1015.2 |
| 20260831205647 | 31 | 99 | 11.3 | 19.3 | 0.00 | 0.00 | 1.91 | 70 | 1015.2 |
| 20260831205147 | 31 | 57 | 6.4 | 16.1 | 0.00 | 0.00 | 1.91 | 70 | 1014.9 |
| 20260831204646 | 31 | 81 | 9.7 | 19.3 | 0.00 | 0.00 | 1.91 | 70 | 1015.2 |
| 20260831204148 | 31 | 102 | 3.2 | 11.3 | 0.00 | 0.00 | 1.91 | 71 | 1014.9 |
| 20260831203646 | 31 | 38 | 8.0 | 19.3 | 0.00 | 0.00 | 1.91 | 72 | 1014.9 |
| 20260831203147 | 31 | 80 | 8.0 | 17.7 | 0.00 | 0.00 | 1.91 | 71 | 1014.9 |
| 20260831202648 | 30 | 41 | 3.2 | 19.3 | 0.00 | 0.00 | 1.91 | 73 | 1015.2 |
| 20260831202148 | 31 | 79 | 6.4 | 20.9 | 0.00 | 0.00 | 1.91 | 71 | 1014.9 |
| 20260831201647 | 31 | 59 | 9.7 | 24.1 | 0.00 | 0.00 | 1.91 | 72 | 1015.2 |
| 20260831201147 | 31 | 92 | 9.7 | 16.1 | 0.00 | 0.00 | 1.91 | 69 | 1015.2 |
| 20260831200646 | 32 | 85 | 11.3 | 19.3 | 0.00 | 0.00 | 1.91 | 69 | 1015.2 |
| 20260831200147 | 31 | 20 | 3.2 | 11.3 | 0.00 | 0.00 | 1.91 | 69 | 1015.2 |
| 20260831195647 | 31 | 65 | 11.3 | 16.1 | 0.00 | 0.00 | 1.91 | 69 | 1015.2 |
| 20260831195146 | 31 | 75 | 9.7 | 12.9 | 0.00 | 0.00 | 1.91 | 73 | 1015.6 |
| 20260831194646 | 30 | 78 | 9.7 | 20.9 | 0.00 | 0.00 | 1.91 | 74 | 1015.6 |
| 20260831194148 | 30 | 73 | 9.7 | 22.5 | 0.00 | 0.00 | 1.91 | 74 | 1015.6 |
| 20260831193648 | 30 | 74 | 12.9 | 17.7 | 0.00 | 0.00 | 1.91 | 75 | 1015.9 |
| 20260831193147 | 30 | 103 | 4.8 | 6.4 | 0.00 | 0.00 | 1.91 | 80 | 1015.9 |
| 20260831192646 | 29 | 63 | 0.0 | 9.7 | 0.00 | 0.00 | 1.91 | 81 | 1015.9 |
| 20260831192150 | 28 | 155 | 0.0 | 11.3 | 0.00 | 0.00 | 1.91 | 82 | 1015.6 |
| 20260831191649 | 28 | 154 | 8.0 | 9.7 | 0.00 | 0.00 | 1.91 | 84 | 1015.9 |
| 20260831191148 | 28 | 175 | 4.8 | 12.9 | 0.00 | 0.00 | 1.91 | 86 | 1015.9 |
| 20260831190656 | 27 | 150 | 8.0 | 11.3 | 0.00 | 0.00 | 1.91 | 90 | 1015.6 |
| 20260831190147 | 27 | 167 | 8.0 | 11.3 | 0.00 | 0.00 | 1.91 | 91 | 1015.9 |
| 20260831185646 | 27 | 189 | 8.0 | 8.0 | 0.00 | 0.00 | 1.91 | 93 | 1015.9 |
| 20260831185146 | 26 | 179 | 3.2 | 9.7 | 0.00 | 0.00 | 1.91 | 94 | 1015.9 |
| 20260831184648 | 26 | 174 | 4.8 | 9.7 | 1.55 | 0.00 | 1.91 | 93 | 1016.3 |
| 20260831184147 | 26 | 221 | 8.0 | 22.5 | 3.84 | 0.00 | 1.91 | 91 | 1016.3 |
| 20260831183647 | 27 | 95 | 8.0 | 14.5 | 1.75 | 0.00 | 1.50 | 88 | 1016.3 |
| 20260831183147 | 28 | 125 | 3.2 | 19.3 | 0.36 | 0.00 | 1.27 | 85 | 1016.3 |
| 20260831182647 | 29 | 54 | 14.5 | 17.7 | 0.00 | 0.00 | 1.22 | 79 | 1016.3 |
| 20260831182146 | 30 | 62 | 11.3 | 14.5 | 0.00 | 0.00 | 1.22 | 78 | 1016.3 |
| 20260831181646 | 29 | 44 | 9.7 | 22.5 | 0.00 | 0.00 | 1.22 | 78 | 1016.3 |
| 20260831181147 | 29 | 78 | 4.8 | 24.1 | 0.00 | 0.00 | 1.22 | 78 | 1016.3 |
| 20260831180647 | 28 | 55 | 11.3 | 24.1 | 0.00 | 0.00 | 1.22 | 82 | 1016.3 |
| 20260831180149 | 27 | 41 | 6.4 | 14.5 | 0.00 | 0.00 | 1.22 | 87 | 1016.6 |
| 20260831175646 | 27 | 52 | 14.5 | 20.9 | 0.00 | 0.00 | 1.22 | 84 | 1016.9 |
| 20260831175146 | 27 | 58 | 11.3 | 22.5 | 0.00 | 0.00 | 1.22 | 84 | 1016.6 |
| 20260831174646 | 29 | 64 | 17.7 | 27.4 | 0.00 | 0.00 | 1.22 | 76 | 1016.3 |
| 20260831174147 | 29 | 53 | 16.1 | 30.6 | 0.00 | 0.00 | 1.22 | 76 | 1016.3 |
| 20260831173646 | 29 | 74 | 8.0 | 25.7 | 0.00 | 0.00 | 1.22 | 77 | 1016.6 |
| 20260831173147 | 29 | 76 | 16.1 | 29.0 | 0.36 | 0.00 | 1.22 | 82 | 1016.6 |
| 20260831172646 | 27 | 73 | 12.9 | 17.7 | 0.84 | 0.00 | 1.22 | 87 | 1016.3 |
| 20260831172147 | 29 | 55 | 12.9 | 24.1 | 0.48 | 0.00 | 1.14 | 82 | 1016.6 |
| 20260831171647 | 30 | 34 | 8.0 | 27.4 | 0.00 | 0.00 | 1.07 | 77 | 1016.6 |
| 20260831171146 | 30 | 67 | 11.3 | 14.5 | 0.00 | 0.00 | 1.07 | 75 | 1016.6 |
| 20260831170646 | 30 | 53 | 12.9 | 17.7 | 0.00 | 0.00 | 1.07 | 74 | 1016.6 |
| 20260831170147 | 30 | 48 | 14.5 | 20.9 | 0.00 | 0.00 | 1.07 | 75 | 1016.6 |
| 20260831165648 | 30 | 50 | 8.0 | 16.1 | 0.00 | 0.00 | 1.07 | 76 | 1016.6 |
| 20260831165146 | 30 | 10 | 8.0 | 8.0 | 0.00 | 0.00 | 1.07 | 78 | 1016.6 |
| 20260831164650 | 30 | 24 | 12.9 | 16.1 | 0.00 | 0.00 | 1.07 | 78 | 1016.6 |
| 20260831164146 | 30 | 26 | 4.8 | 12.9 | 0.00 | 0.00 | 1.07 | 77 | 1016.6 |
| 20260831163648 | 30 | 54 | 6.4 | 9.7 | 0.00 | 0.00 | 1.07 | 77 | 1016.6 |
| 20260831163146 | 30 | 35 | 9.7 | 17.7 | 0.00 | 0.00 | 1.07 | 78 | 1016.6 |
| 20260831162647 | 30 | 51 | 12.9 | 14.5 | 0.00 | 0.00 | 1.07 | 78 | 1016.9 |
| 20260831162146 | 30 | 80 | 4.8 | 20.9 | 0.00 | 0.00 | 1.07 | 76 | 1016.9 |
| 20260831161649 | 30 | 35 | 9.7 | 19.3 | 0.00 | 0.00 | 1.07 | 76 | 1016.9 |
| 20260831161148 | 30 | 85 | 8.0 | 17.7 | 0.00 | 0.00 | 1.07 | 72 | 1016.9 |
| 20260831160647 | 30 | 123 | 11.3 | 19.3 | 0.00 | 0.00 | 1.07 | 72 | 1016.9 |
| 20260831160146 | 30 | 51 | 12.9 | 17.7 | 0.00 | 0.00 | 1.07 | 72 | 1016.9 |
| 20260831155647 | 30 | 95 | 4.8 | 11.3 | 0.00 | 0.00 | 1.07 | 73 | 1016.9 |
| 20260831155147 | 30 | 63 | 9.7 | 17.7 | 0.00 | 0.00 | 1.07 | 73 | 1016.9 |
| 20260831154647 | 30 | 123 | 8.0 | 19.3 | 0.00 | 0.00 | 1.07 | 75 | 1016.9 |
| 20260831154146 | 30 | 58 | 17.7 | 17.7 | 0.00 | 0.00 | 1.07 | 75 | 1016.9 |
| 20260831153647 | 29 | 35 | 11.3 | 29.0 | 0.00 | 0.00 | 1.07 | 81 | 1016.6 |
| 20260831153148 | 28 | 58 | 9.7 | 9.7 | 0.00 | 0.00 | 1.07 | 87 | 1016.3 |
| 20260831152651 | 27 | 63 | 4.8 | 8.0 | 0.00 | 0.00 | 1.07 | 89 | 1016.3 |
| 20260831152147 | 27 | 51 | 4.8 | 4.8 | 0.00 | 0.00 | 1.07 | 90 | 1016.3 |
| 20260831151646 | 26 | 325 | 3.2 | 6.4 | 0.00 | 0.00 | 1.07 | 90 | 1016.6 |
| 20260831151148 | 26 | 44 | 0.0 | 8.0 | 0.00 | 0.00 | 1.07 | 89 | 1016.6 |
| 20260831150646 | 26 | 16 | 3.2 | 11.3 | 0.00 | 0.00 | 1.07 | 89 | 1016.6 |
| 20260831150148 | 26 | 19 | 3.2 | 8.0 | 0.00 | 0.00 | 1.07 | 90 | 1016.6 |
| 20260831145648 | 26 | 13 | 1.6 | 9.7 | 0.13 | 0.00 | 1.07 | 93 | 1016.3 |
| 20260831145147 | 26 | 32 | 4.8 | 14.5 | 2.95 | 0.00 | 1.07 | 93 | 1016.6 |
| 20260831144648 | 26 | 45 | 14.5 | 17.7 | 3.00 | 0.00 | 1.02 | 91 | 1016.6 |
| 20260831144147 | 29 | 146 | 11.3 | 35.4 | 0.97 | 0.00 | 0.69 | 81 | 1016.6 |
| 20260831143646 | 30 | 59 | 8.0 | 11.3 | 0.00 | 0.00 | 0.51 | 76 | 1015.9 |
| 20260831143146 | 30 | 174 | 4.8 | 16.1 | 0.00 | 0.00 | 0.51 | 76 | 1016.3 |
| 20260831142647 | 30 | 72 | 12.9 | 16.1 | 0.00 | 0.00 | 0.51 | 76 | 1015.9 |
| 20260831142147 | 30 | 39 | 6.4 | 12.9 | 0.00 | 0.00 | 0.51 | 76 | 1015.9 |
| 20260831141646 | 30 | 66 | 14.5 | 17.7 | 0.00 | 0.00 | 0.51 | 77 | 1015.9 |
| 20260831141147 | 30 | 64 | 12.9 | 17.7 | 0.00 | 0.00 | 0.51 | 77 | 1015.9 |
| 20260831140647 | 30 | 9 | 4.8 | 11.3 | 0.00 | 0.00 | 0.51 | 79 | 1015.9 |
| 20260831140147 | 30 | 113 | 8.0 | 20.9 | 0.00 | 0.00 | 0.51 | 79 | 1016.3 |
| 20260831135646 | 30 | 62 | 9.7 | 11.3 | 0.00 | 0.00 | 0.51 | 80 | 1015.9 |
| 20260831135146 | 29 | 61 | 11.3 | 17.7 | 0.00 | 0.00 | 0.51 | 81 | 1015.9 |
| 20260831134647 | 29 | 67 | 11.3 | 12.9 | 0.00 | 0.00 | 0.51 | 81 | 1015.9 |
| 20260831134146 | 29 | 68 | 9.7 | 11.3 | 0.00 | 0.00 | 0.51 | 82 | 1015.9 |
| 20260831133646 | 29 | 69 | 12.9 | 14.5 | 0.00 | 0.00 | 0.51 | 83 | 1015.9 |
| 20260831133147 | 28 | 38 | 4.8 | 11.3 | 0.00 | 0.00 | 0.51 | 85 | 1015.9 |
| 20260831132646 | 28 | 65 | 6.4 | 9.7 | 0.00 | 0.00 | 0.51 | 86 | 1015.9 |
| 20260831132147 | 28 | 59 | 4.8 | 9.7 | 0.00 | 0.00 | 0.51 | 87 | 1015.9 |
| 20260831131646 | 28 | 51 | 3.2 | 14.5 | 0.00 | 0.00 | 0.51 | 88 | 1015.6 |
| 20260831131147 | 27 | 77 | 4.8 | 9.7 | 0.00 | 0.00 | 0.51 | 88 | 1015.2 |
| 20260831130647 | 27 | 39 | 4.8 | 9.7 | 0.00 | 0.00 | 0.51 | 88 | 1015.6 |
| 20260831130150 | 27 | 45 | 6.4 | 8.0 | 0.00 | 0.00 | 0.51 | 90 | 1015.6 |
| 20260831125647 | 27 | 14 | 3.2 | 6.4 | 0.00 | 0.00 | 0.51 | 90 | 1015.6 |
| 20260831125148 | 27 | 339 | 3.2 | 8.0 | 0.00 | 0.00 | 0.51 | 89 | 1015.6 |
| 20260831124646 | 27 | 68 | 4.8 | 6.4 | 0.00 | 0.00 | 0.51 | 89 | 1015.6 |
| 20260831124147 | 26 | 31 | 4.8 | 6.4 | 0.00 | 0.00 | 0.51 | 92 | 1015.2 |
| 20260831123647 | 26 | 341 | 0.0 | 4.8 | 0.05 | 0.00 | 0.51 | 92 | 1015.6 |
| 20260831123149 | 26 | 67 | 4.8 | 6.4 | 0.05 | 0.00 | 0.51 | 93 | 1015.2 |
| 20260831122647 | 26 | 117 | 1.6 | 4.8 | 0.00 | 0.00 | 0.51 | 93 | 1015.2 |
| 20260831122149 | 26 | 107 | 3.2 | 4.8 | 0.00 | 0.00 | 0.51 | 93 | 1015.2 |
| 20260831121647 | 26 | 80 | 3.2 | 6.4 | 0.00 | 0.00 | 0.51 | 93 | 1015.2 |
| 20260831121149 | 26 | 73 | 4.8 | 8.0 | 0.00 | 0.00 | 0.51 | 93 | 1015.2 |
| 20260831120648 | 26 | 31 | 3.2 | 4.8 | 0.00 | 0.00 | 0.51 | 92 | 1015.2 |
| 20260831120148 | 26 | 34 | 0.0 | 6.4 | 0.00 | 0.00 | 0.51 | 92 | 1014.9 |
| 20260831115646 | 26 | 65 | 1.6 | 8.0 | 0.00 | 0.00 | 0.51 | 93 | 1014.9 |
| 20260831115149 | 25 | 104 | 3.2 | 8.0 | 0.00 | 0.00 | 0.51 | 93 | 1014.6 |
| 20260831114647 | 25 | 319 | 3.2 | 9.7 | 0.00 | 0.00 | 0.51 | 93 | 1014.6 |
| 20260831114150 | 25 | 27 | 4.8 | 8.0 | 0.00 | 0.00 | 0.51 | 93 | 1014.9 |
| 20260831113646 | 25 | 47 | 8.0 | 12.9 | 0.00 | 0.00 | 0.51 | 94 | 1014.6 |
| 20260831113146 | 25 | 58 | 6.4 | 8.0 | 0.00 | 0.00 | 0.51 | 96 | 1014.6 |
| 20260831112647 | 25 | 266 | 0.0 | 8.0 | 0.00 | 0.00 | 0.51 | 97 | 1014.6 |
| 20260831112146 | 25 | 4 | 3.2 | 4.8 | 0.00 | 0.00 | 0.51 | 97 | 1014.6 |
| 20260831111647 | 25 | 130 | 0.0 | 4.8 | 0.36 | 0.00 | 0.51 | 97 | 1014.6 |
| 20260831111146 | 25 | 89 | 0.0 | 4.8 | 0.89 | 0.00 | 0.51 | 96 | 1014.6 |
| 20260831110647 | 25 | 65 | 3.2 | 11.3 | 2.16 | 0.00 | 0.46 | 96 | 1014.9 |
| 20260831110147 | 25 | 45 | 3.2 | 12.9 | 1.63 | 0.00 | 0.30 | 95 | 1015.2 |
| 20260831105646 | 25 | 290 | 3.2 | 16.1 | 0.48 | 0.00 | 0.10 | 93 | 1015.2 |
| 20260831105149 | 26 | 144 | 12.9 | 20.9 | 0.23 | 0.00 | 0.05 | 90 | 1014.9 |
| 20260831104646 | 27 | 136 | 11.3 | 16.1 | 0.00 | 0.00 | 0.00 | 88 | 1014.6 |
| 20260831104146 | 27 | 185 | 0.0 | 4.8 | 0.00 | 0.00 | 0.00 | 87 | 1014.6 |
| 20260831103647 | 27 | 62 | 4.8 | 6.4 | 0.00 | 0.00 | 0.00 | 86 | 1014.6 |
| 20260831103146 | 27 | 57 | 3.2 | 4.8 | 0.00 | 0.00 | 0.00 | 86 | 1014.6 |
| 20260831102646 | 27 | 15 | 0.0 | 4.8 | 0.00 | 0.00 | 0.00 | 86 | 1014.6 |
| 20260831102146 | 27 | 52 | 4.8 | 6.4 | 0.00 | 0.00 | 0.00 | 86 | 1014.6 |
| 20260831101648 | 27 | 84 | 0.0 | 4.8 | 0.00 | 0.00 | 0.00 | 86 | 1014.2 |
| 20260831101147 | 27 | 37 | 1.6 | 3.2 | 0.00 | 0.00 | 0.00 | 85 | 1014.6 |
| 20260831100646 | 27 | 51 | 3.2 | 4.8 | 0.00 | 0.00 | 0.00 | 85 | 1014.6 |
| 20260831100148 | 27 | 52 | 4.8 | 4.8 | 0.00 | 0.00 | 0.00 | 86 | 1014.6 |
| 20260831095646 | 28 | 74 | 4.8 | 4.8 | 0.00 | 0.00 | 0.00 | 85 | 1014.6 |
| 20260831095146 | 28 | 17 | 4.8 | 6.4 | 0.00 | 0.00 | 0.00 | 85 | 1014.2 |
| 20260831094648 | 28 | 22 | 0.0 | 6.4 | 0.00 | 0.00 | 0.00 | 85 | 1014.2 |
| 20260831094147 | 28 | 84 | 3.2 | 6.4 | 0.00 | 0.00 | 0.00 | 85 | 1014.2 |
| 20260831093646 | 28 | 53 | 3.2 | 6.4 | 0.00 | 0.00 | 0.00 | 85 | 1014.2 |
| 20260831093147 | 28 | 55 | 4.8 | 9.7 | 0.00 | 0.00 | 0.00 | 85 | 1014.2 |
| 20260831092648 | 28 | 66 | 6.4 | 9.7 | 0.00 | 0.00 | 0.00 | 85 | 1013.9 |
| 20260831092146 | 28 | 61 | 6.4 | 8.0 | 0.00 | 0.00 | 0.00 | 84 | 1014.2 |
| 20260831091648 | 28 | 58 | 4.8 | 6.4 | 0.00 | 0.00 | 0.00 | 84 | 1014.2 |
| 20260831091146 | 28 | 80 | 3.2 | 9.7 | 0.00 | 0.00 | 0.00 | 84 | 1014.2 |
| 20260831090646 | 28 | 68 | 4.8 | 8.0 | 0.00 | 0.00 | 0.00 | 85 | 1014.2 |
| 20260831090147 | 28 | 71 | 3.2 | 11.3 | 0.00 | 0.00 | 0.00 | 85 | 1014.2 |
| 20260831085646 | 28 | 58 | 4.8 | 9.7 | 0.00 | 0.00 | 0.00 | 85 | 1013.9 |
| 20260831085146 | 28 | 65 | 6.4 | 9.7 | 0.00 | 0.00 | 0.00 | 85 | 1013.9 |
| 20260831084646 | 27 | 70 | 8.0 | 11.3 | 0.00 | 0.00 | 0.00 | 85 | 1014.2 |
| 20260831084147 | 27 | 74 | 6.4 | 9.7 | 0.00 | 0.00 | 0.00 | 85 | 1014.2 |
| 20260831083647 | 27 | 56 | 4.8 | 8.0 | 0.00 | 0.00 | 0.00 | 85 | 1014.2 |
| 20260831083146 | 27 | 61 | 9.7 | 9.7 | 0.00 | 0.00 | 0.00 | 85 | 1014.2 |
| 20260831082646 | 28 | 106 | 4.8 | 9.7 | 0.00 | 0.00 | 0.00 | 85 | 1014.2 |
| 20260831082146 | 28 | 66 | 3.2 | 6.4 | 0.00 | 0.00 | 0.00 | 84 | 1014.2 |
| 20260831081647 | 28 | 51 | 3.2 | 6.4 | 0.00 | 0.00 | 0.00 | 84 | 1014.2 |
| 20260831081146 | 28 | 70 | 3.2 | 8.0 | 0.00 | 0.00 | 0.00 | 84 | 1014.2 |
| 20260831080646 | 28 | 60 | 3.2 | 9.7 | 0.00 | 0.00 | 0.00 | 84 | 1014.2 |
| 20260831080146 | 28 | 88 | 3.2 | 6.4 | 0.00 | 0.00 | 0.00 | 84 | 1014.2 |
| 20260831075647 | 28 | 58 | 6.4 | 8.0 | 0.00 | 0.00 | 0.00 | 84 | 1013.9 |
| 20260831075147 | 28 | 69 | 4.8 | 8.0 | 0.00 | 0.00 | 0.00 | 84 | 1014.2 |
| 20260831074646 | 27 | 119 | 3.2 | 8.0 | 0.00 | 0.00 | 0.00 | 84 | 1014.2 |
| 20260831074147 | 27 | 74 | 4.8 | 6.4 | 0.00 | 0.00 | 0.00 | 85 | 1014.2 |
| 20260831073647 | 28 | 32 | 0.0 | 6.4 | 0.00 | 0.00 | 0.00 | 85 | 1014.2 |
| 20260831073146 | 28 | 70 | 4.8 | 9.7 | 0.00 | 0.00 | 0.00 | 85 | 1014.2 |
| 20260831072647 | 28 | 50 | 3.2 | 6.4 | 0.00 | 0.00 | 0.00 | 85 | 1014.2 |
| 20260831072151 | 28 | 58 | 8.0 | 11.3 | 0.00 | 0.00 | 0.00 | 85 | 1014.6 |
| 20260831071646 | 28 | 98 | 1.6 | 9.7 | 0.00 | 0.00 | 0.00 | 85 | 1014.2 |
| 20260831071146 | 28 | 57 | 6.4 | 12.9 | 0.00 | 0.00 | 0.00 | 85 | 1014.2 |
| 20260831070646 | 28 | 85 | 4.8 | 9.7 | 0.00 | 0.00 | 0.00 | 85 | 1014.2 |
| 20260831070147 | 28 | 58 | 11.3 | 16.1 | 0.00 | 0.00 | 0.00 | 85 | 1014.2 |
| 20260831065647 | 28 | 84 | 9.7 | 12.9 | 0.00 | 0.00 | 0.00 | 85 | 1014.2 |
| 20260831065146 | 28 | 88 | 4.8 | 12.9 | 0.00 | 0.00 | 0.00 | 85 | 1014.6 |
| 20260831064647 | 28 | 54 | 4.8 | 11.3 | 0.00 | 0.00 | 0.00 | 85 | 1014.6 |
| 20260831064147 | 28 | 72 | 8.0 | 11.3 | 0.00 | 0.00 | 0.00 | 85 | 1014.6 |
| 20260831063646 | 28 | 92 | 9.7 | 11.3 | 0.00 | 0.00 | 0.00 | 85 | 1014.6 |
| 20260831063146 | 28 | 217 | 3.2 | 8.0 | 0.00 | 0.00 | 0.00 | 84 | 1014.9 |
| 20260831062646 | 28 | 64 | 3.2 | 8.0 | 0.00 | 0.00 | 0.00 | 84 | 1014.9 |
| 20260831062146 | 28 | 77 | 3.2 | 12.9 | 0.00 | 0.00 | 0.00 | 84 | 1014.9 |
| 20260831061646 | 28 | 117 | 4.8 | 14.5 | 0.00 | 0.00 | 0.00 | 85 | 1015.2 |
| 20260831061146 | 28 | 47 | 6.4 | 6.4 | 0.00 | 0.00 | 0.00 | 85 | 1015.2 |
| 20260831060647 | 28 | 75 | 3.2 | 12.9 | 0.00 | 0.00 | 0.00 | 84 | 1015.2 |
| 20260831060148 | 28 | 81 | 4.8 | 12.9 | 0.00 | 0.00 | 0.00 | 84 | 1014.9 |
| 20260831055647 | 28 | 110 | 1.6 | 11.3 | 0.00 | 0.00 | 0.00 | 84 | 1015.2 |
| 20260831055146 | 28 | 143 | 11.3 | 11.3 | 0.00 | 0.00 | 0.00 | 84 | 1014.9 |
| 20260831054646 | 28 | 61 | 8.0 | 11.3 | 0.00 | 0.00 | 0.00 | 84 | 1015.2 |
| 20260831054146 | 28 | 76 | 8.0 | 11.3 | 0.00 | 0.00 | 0.00 | 85 | 1015.2 |
| 20260831053646 | 28 | 120 | 1.6 | 8.0 | 0.00 | 0.00 | 0.00 | 85 | 1015.2 |
| 20260831053146 | 28 | 123 | 3.2 | 9.7 | 0.00 | 0.00 | 0.00 | 85 | 1015.2 |
| 20260831052646 | 28 | 73 | 6.4 | 8.0 | 0.00 | 0.00 | 0.00 | 85 | 1015.2 |
| 20260831052147 | 28 | 67 | 9.7 | 17.7 | 0.00 | 0.00 | 0.00 | 84 | 1015.2 |
| 20260831051646 | 28 | 86 | 9.7 | 14.5 | 0.00 | 0.00 | 0.00 | 85 | 1015.2 |
| 20260831051148 | 28 | 70 | 8.0 | 14.5 | 0.00 | 0.00 | 0.00 | 85 | 1015.2 |
| 20260831050647 | 28 | 52 | 4.8 | 14.5 | 0.00 | 0.00 | 0.00 | 85 | 1015.2 |
| 20260831050147 | 28 | 68 | 8.0 | 11.3 | 0.00 | 0.00 | 0.00 | 85 | 1015.2 |
| 20260831045646 | 28 | 152 | 4.8 | 12.9 | 0.00 | 0.00 | 0.66 | 85 | 1015.2 |
| 20260831045146 | 28 | 57 | 11.3 | 12.9 | 0.00 | 0.00 | 0.66 | 85 | 1015.2 |
| 20260831044646 | 28 | 88 | 8.0 | 12.9 | 0.00 | 0.00 | 0.66 | 85 | 1015.2 |
| 20260831044147 | 28 | 84 | 4.8 | 16.1 | 0.00 | 0.00 | 0.66 | 85 | 1015.6 |
| 20260831043646 | 28 | 99 | 6.4 | 11.3 | 0.00 | 0.00 | 0.66 | 84 | 1015.2 |
| 20260831043146 | 28 | 79 | 4.8 | 14.5 | 0.00 | 0.00 | 0.66 | 84 | 1015.6 |
| 20260831042647 | 28 | 62 | 8.0 | 11.3 | 0.00 | 0.00 | 0.66 | 84 | 1015.6 |
| 20260831042146 | 28 | 82 | 3.2 | 9.7 | 0.00 | 0.00 | 0.66 | 84 | 1015.9 |
| 20260831041647 | 28 | 84 | 9.7 | 12.9 | 0.00 | 0.00 | 0.66 | 83 | 1015.6 |
| 20260831041147 | 28 | 84 | 3.2 | 6.4 | 0.00 | 0.00 | 0.66 | 83 | 1015.6 |
| 20260831040647 | 28 | 50 | 3.2 | 14.5 | 0.00 | 0.00 | 0.66 | 83 | 1015.6 |
| 20260831040154 | 28 | 50 | 12.9 | 16.1 | 0.00 | 0.00 | 0.66 | 83 | 1015.6 |
| 20260831035646 | 28 | 81 | 6.4 | 8.0 | 0.00 | 0.00 | 0.66 | 82 | 1015.6 |
| 20260831035147 | 28 | 39 | 4.8 | 8.0 | 0.00 | 0.00 | 0.66 | 82 | 1015.6 |
| 20260831034647 | 28 | 107 | 3.2 | 8.0 | 0.00 | 0.00 | 0.66 | 82 | 1015.6 |
| 20260831034147 | 28 | 80 | 8.0 | 9.7 | 0.00 | 0.00 | 0.66 | 82 | 1015.9 |
| 20260831033647 | 28 | 79 | 3.2 | 4.8 | 0.00 | 0.00 | 0.66 | 82 | 1015.6 |
| 20260831033147 | 28 | 50 | 6.4 | 16.1 | 0.00 | 0.00 | 0.66 | 81 | 1015.9 |
| 20260831032646 | 28 | 96 | 9.7 | 11.3 | 0.00 | 0.00 | 0.66 | 81 | 1015.9 |
| 20260831032147 | 28 | 222 | 1.6 | 6.4 | 0.00 | 0.00 | 0.66 | 81 | 1015.9 |
| 20260831031648 | 28 | 85 | 4.8 | 11.3 | 0.00 | 0.00 | 0.66 | 81 | 1015.9 |
| 20260831030711 | 28 | 63 | 4.8 | 14.5 | 0.00 | 0.00 | 0.66 | 81 | 1015.2 |
| 20260831030146 | 28 | 68 | 6.4 | 11.3 | 0.00 | 0.00 | 0.66 | 81 | 1015.6 |
| 20260831025646 | 28 | 69 | 6.4 | 11.3 | 0.00 | 0.00 | 0.66 | 81 | 1015.6 |
| 20260831025147 | 28 | 57 | 3.2 | 8.0 | 0.00 | 0.00 | 0.66 | 81 | 1015.6 |
| 20260831024646 | 28 | 71 | 9.7 | 14.5 | 0.00 | 0.00 | 0.66 | 80 | 1015.2 |
| 20260831024148 | 28 | 108 | 8.0 | 9.7 | 0.00 | 0.00 | 0.66 | 80 | 1015.6 |
| 20260831023646 | 28 | 72 | 3.2 | 6.4 | 0.00 | 0.00 | 0.66 | 80 | 1015.6 |
| 20260831023147 | 28 | 61 | 3.2 | 8.0 | 0.00 | 0.00 | 0.66 | 79 | 1015.6 |
| 20260831022646 | 28 | 77 | 3.2 | 11.3 | 0.00 | 0.00 | 0.66 | 79 | 1015.2 |
| 20260831022148 | 28 | 82 | 8.0 | 14.5 | 0.00 | 0.00 | 0.66 | 78 | 1015.2 |
| 20260831021647 | 28 | 62 | 11.3 | 16.1 | 0.00 | 0.00 | 0.66 | 78 | 1015.2 |
| 20260831021146 | 28 | 84 | 11.3 | 20.9 | 0.00 | 0.00 | 0.66 | 77 | 1015.2 |
| 20260831020646 | 28 | 64 | 14.5 | 14.5 | 0.00 | 0.00 | 0.66 | 79 | 1015.2 |
| 20260831020147 | 28 | 86 | 11.3 | 12.9 | 0.00 | 0.00 | 0.66 | 80 | 1015.2 |
| 20260831015647 | 28 | 38 | 14.5 | 20.9 | 0.00 | 0.00 | 0.66 | 80 | 1014.9 |
| 20260831015148 | 28 | 60 | 8.0 | 9.7 | 0.00 | 0.00 | 0.66 | 79 | 1014.9 |
| 20260831014647 | 28 | 68 | 4.8 | 11.3 | 0.00 | 0.00 | 0.66 | 79 | 1014.9 |
| 20260831014147 | 28 | 96 | 11.3 | 14.5 | 0.00 | 0.00 | 0.66 | 78 | 1014.9 |
| 20260831013647 | 28 | 53 | 9.7 | 14.5 | 0.00 | 0.00 | 0.66 | 78 | 1014.9 |
| 20260831013146 | 28 | 71 | 9.7 | 20.9 | 0.00 | 0.00 | 0.66 | 78 | 1014.6 |
| 20260831012647 | 28 | 94 | 8.0 | 17.7 | 0.00 | 0.00 | 0.66 | 78 | 1014.6 |
| 20260831012146 | 28 | 69 | 9.7 | 14.5 | 0.00 | 0.00 | 0.66 | 77 | 1014.6 |
| 20260831011648 | 28 | 51 | 8.0 | 17.7 | 0.00 | 0.00 | 0.66 | 78 | 1014.6 |
| 20260831011146 | 29 | 67 | 8.0 | 17.7 | 0.00 | 0.00 | 0.66 | 77 | 1014.6 |
| 20260831010647 | 28 | 79 | 12.9 | 16.1 | 0.00 | 0.00 | 0.66 | 77 | 1014.6 |
| 20260831010147 | 29 | 68 | 12.9 | 16.1 | 0.00 | 0.00 | 0.66 | 76 | 1014.2 |
| 20260831005646 | 29 | 80 | 4.8 | 11.3 | 0.00 | 0.00 | 0.66 | 76 | 1014.2 |
| 20260831005149 | 29 | 70 | 12.9 | 16.1 | 0.00 | 0.00 | 0.66 | 76 | 1014.2 |
| 20260831004646 | 29 | 68 | 8.0 | 17.7 | 0.00 | 0.00 | 0.66 | 75 | 1014.2 |
| 20260831004146 | 29 | 34 | 4.8 | 11.3 | 0.00 | 0.00 | 0.66 | 75 | 1014.2 |
| 20260831003646 | 29 | 62 | 9.7 | 14.5 | 0.00 | 0.00 | 0.66 | 75 | 1014.2 |
| 20260831003146 | 29 | 58 | 9.7 | 11.3 | 0.00 | 0.00 | 0.66 | 76 | 1014.2 |
| 20260831002647 | 29 | 72 | 3.2 | 12.9 | 0.00 | 0.00 | 0.66 | 76 | 1014.2 |
| 20260831002146 | 29 | 73 | 6.4 | 17.7 | 0.00 | 0.00 | 0.66 | 76 | 1014.2 |
| 20260831001647 | 29 | 91 | 4.8 | 17.7 | 0.00 | 0.00 | 0.66 | 76 | 1014.2 |
| 20260831001146 | 29 | 60 | 11.3 | 17.7 | 0.00 | 0.00 | 0.66 | 75 | 1014.2 |
| 20260831000646 | 30 | 65 | 14.5 | 24.1 | 0.00 | 0.00 | 0.66 | 74 | 1014.2 |
| 20260831000146 | 30 | 63 | 16.1 | 22.5 | 0.00 | 0.00 | 0.66 | 72 | 1014.2 |
| 20260830235646 | 30 | 51 | 12.9 | 20.9 | 0.00 | 0.00 | 0.66 | 72 | 1014.2 |
| 20260830235146 | 30 | 49 | 12.9 | 22.5 | 0.00 | 0.00 | 0.66 | 73 | 1014.2 |
| 20260830234647 | 30 | 32 | 8.0 | 17.7 | 0.00 | 0.00 | 0.66 | 74 | 1014.2 |
| 20260830234147 | 30 | 57 | 14.5 | 20.9 | 0.00 | 0.00 | 0.66 | 74 | 1014.2 |
| 20260830233646 | 30 | 67 | 16.1 | 17.7 | 0.00 | 0.00 | 0.66 | 74 | 1014.2 |
| 20260830233148 | 30 | 73 | 8.0 | 16.1 | 0.00 | 0.00 | 0.66 | 74 | 1014.2 |